DW7628 Weather Reports


Display with metric or nautical units.
time (UTC)temp
F
wind
direction
speed
MPH
gust
MPH
rain 1hr
in
rain 24hr
in
rain mn
in
humidity
%
barometer
mb
20260904211807 76 75 0.0 0.0 0.00 0.00 0.00 60 1016.1
20260904211306 76 97 0.0 0.0 0.00 0.00 0.00 60 1016.1
20260904210806 76 248 0.0 0.0 0.00 0.00 0.00 59 1016.2
20260904210306 76 233 0.0 0.0 0.00 0.00 0.00 59 1016.2
20260904205306 76 231 0.0 0.0 0.00 0.00 0.00 58 1016.1
20260904204306 76 80 0.0 0.0 0.00 0.00 0.00 58 1016.1
20260904203806 76 79 0.0 0.0 0.00 0.00 0.00 57 1016.1
20260904203306 76 21 0.0 0.0 0.00 0.00 0.00 57 1016.3
20260904202806 76 250 0.0 0.0 0.00 0.00 0.00 57 1016.3
20260904202306 76 75 0.0 0.0 0.00 0.00 0.00 57 1016.3
20260904201806 76 245 0.0 0.0 0.00 0.00 0.00 57 1016.3
20260904201306 76 103 0.0 0.0 0.00 0.00 0.00 59 1016.3
20260904200805 76 93 0.0 0.0 0.00 0.00 0.00 61 1016.3
20260904200306 76 231 0.0 0.0 0.00 0.00 0.00 61 1016.4
20260904195306 76 243 0.0 0.0 0.00 0.00 0.00 64 1016.2
20260904194806 76 230 0.0 0.0 0.00 0.00 0.00 64 1016.3
20260904194305 76 72 0.0 0.0 0.00 0.00 0.00 65 1016.2
20260904193807 76 76 0.0 0.0 0.00 0.00 0.00 64 1016.3
20260904193306 76 71 0.0 0.0 0.00 0.00 0.00 63 1016.2
20260904192806 76 149 0.0 0.0 0.00 0.00 0.00 63 1016.2
20260904192306 76 126 0.0 0.0 0.00 0.00 0.00 62 1016.2
20260904191807 76 211 0.0 0.0 0.00 0.00 0.00 64 1016.1
20260904191306 76 262 0.0 0.0 0.00 0.00 0.00 65 1016.0
20260904190806 76 269 0.0 0.0 0.00 0.00 0.00 65 1016.0
20260904190306 76 217 0.0 0.0 0.00 0.00 0.00 64 1015.9
20260904185805 76 125 0.0 0.0 0.00 0.00 0.00 65 1015.9
20260904184807 76 228 0.0 0.0 0.00 0.00 0.00 65 1015.8
20260904184305 76 72 0.0 0.0 0.00 0.00 0.00 65 1015.7
20260904183807 76 76 0.0 0.0 0.00 0.00 0.00 66 1015.6
20260904183305 76 242 0.0 0.0 0.00 0.00 0.00 67 1015.4
20260904182805 77 230 0.0 0.0 0.00 0.00 0.00 66 1015.3
20260904182306 77 208 0.0 0.0 0.00 0.00 0.00 66 1015.2
20260904181805 77 254 0.0 0.0 0.00 0.00 0.00 65 1015.2
20260904180305 78 159 0.0 0.0 0.00 0.00 0.00 62 1014.9
20260904175806 78 205 0.0 0.0 0.00 0.00 0.00 62 1014.8
20260904175306 78 182 0.0 0.0 0.00 0.00 0.00 61 1014.7
20260904174806 79 200 0.0 0.0 0.00 0.00 0.00 60 1014.6
20260904173806 79 155 0.0 0.0 0.00 0.00 0.00 58 1014.4
20260904173306 80 80 0.0 0.0 0.00 0.00 0.00 56 1014.4
20260904172805 80 83 0.0 0.0 0.00 0.00 0.00 55 1014.2
20260904171805 80 276 0.0 0.0 0.00 0.00 0.00 52 1014.2
20260904170806 81 98 0.0 0.0 0.00 0.00 0.00 50 1014.2
20260904170306 81 239 0.0 0.0 0.00 0.00 0.00 49 1014.1
20260904165805 82 62 0.0 0.0 0.00 0.00 0.00 48 1014.0
20260904165306 82 205 0.0 0.0 0.00 0.00 0.00 47 1014.1
20260904164805 82 98 0.0 0.0 0.00 0.00 0.00 46 1014.0
20260904164305 83 247 0.0 0.0 0.00 0.00 0.00 45 1013.9
20260904163805 83 191 0.0 0.0 0.00 0.00 0.00 43 1013.9
20260904163305 84 138 0.0 0.0 0.00 0.00 0.00 42 1014.0
20260904162805 84 215 0.0 0.0 0.00 0.00 0.00 40 1013.8
20260904162306 85 250 0.0 0.0 0.00 0.00 0.00 39 1013.8
20260904161305 85 264 0.0 0.0 0.00 0.00 0.00 37 1013.7
20260904160806 85 238 0.0 0.0 0.00 0.00 0.00 37 1013.8
20260904160306 85 195 0.0 0.0 0.00 0.00 0.00 37 1013.7
20260904155805 86 194 0.0 0.0 0.00 0.00 0.00 37 1013.6
20260904155307 86 144 0.0 0.0 0.00 0.00 0.00 37 1013.5
20260904154805 86 140 0.0 0.0 0.00 0.00 0.00 38 1013.5
20260904154306 86 92 0.0 0.0 0.00 0.00 0.00 37 1013.5
20260904153805 86 252 0.0 0.0 0.00 0.00 0.00 37 1013.6
20260904153305 87 114 0.0 0.0 0.00 0.00 0.00 37 1013.6
20260904152306 87 157 0.0 0.0 0.00 0.00 0.00 37 1013.6
20260904151806 86 190 0.0 0.0 0.00 0.00 0.00 37 1013.5
20260904151305 86 251 0.0 0.0 0.00 0.00 0.00 37 1013.4
20260904150805 87 245 0.0 0.0 0.00 0.00 0.00 37 1013.5
20260904145306 88 158 0.0 0.0 0.00 0.00 0.00 37 1013.4
20260904144805 88 263 0.0 0.0 0.00 0.00 0.00 36 1013.3
20260904144306 88 300 0.0 0.0 0.00 0.00 0.00 36 1013.3
20260904142805 90 224 0.0 0.0 0.00 0.00 0.00 32 1013.3
20260904142306 90 162 0.0 0.0 0.00 0.00 0.00 33 1013.2
20260904141805 90 131 0.0 0.0 0.00 0.00 0.00 33 1013.2
20260904141305 90 26 0.0 0.0 0.00 0.00 0.00 33 1013.1
20260904140805 90 205 0.0 0.0 0.00 0.00 0.00 33 1013.1
20260904140305 90 136 0.0 0.0 0.00 0.00 0.00 33 1013.1
20260904135805 90 340 0.0 0.0 0.00 0.00 0.00 32 1013.1
20260904135306 90 138 0.0 0.0 0.00 0.00 0.00 32 1013.1
20260904134806 90 244 0.0 0.0 0.00 0.00 0.00 33 1013.1
20260904134305 90 104 0.0 0.0 0.00 0.00 0.00 32 1013.2
20260904133805 91 52 0.0 0.0 0.00 0.00 0.00 32 1013.3
20260904133305 91 2 0.0 0.0 0.00 0.00 0.00 31 1013.3
20260904132805 91 91 0.0 0.0 0.00 0.00 0.00 31 1013.4
20260904132306 92 124 0.0 0.0 0.00 0.00 0.00 30 1013.4
20260904131805 93 6 0.0 0.0 0.00 0.00 0.00 29 1013.4
20260904131306 93 84 0.0 0.0 0.00 0.00 0.00 29 1013.4
20260904130805 94 286 0.0 0.0 0.00 0.00 0.00 28 1013.4
20260904130305 94 82 0.0 0.0 0.00 0.00 0.00 28 1013.4
20260904125805 93 91 0.0 0.0 0.00 0.00 0.00 28 1013.4
20260904125306 93 91 0.0 0.0 0.00 0.00 0.00 28 1013.5
20260904124805 92 35 0.0 0.0 0.00 0.00 0.00 29 1013.6
20260904124305 92 137 0.0 0.0 0.00 0.00 0.00 28 1013.5
20260904123805 93 68 0.0 0.0 0.00 0.00 0.00 28 1013.7
20260904123305 93 102 0.0 0.0 0.00 0.00 0.00 28 1013.6
20260904122805 93 72 0.0 0.0 0.00 0.00 0.00 28 1013.7
20260904122306 93 159 0.0 0.0 0.00 0.00 0.00 28 1013.8
20260904121806 93 125 0.0 0.0 0.00 0.00 0.00 28 1013.9
20260904121305 92 100 0.0 0.0 0.00 0.00 0.00 29 1013.9
20260904120804 92 354 0.0 0.0 0.00 0.00 0.00 28 1013.9
20260904120305 92 192 0.0 0.0 0.00 0.00 0.00 28 1014.0
20260904115805 92 138 0.0 0.0 0.00 0.00 0.00 28 1014.0
20260904115306 92 70 0.0 0.0 0.00 0.00 0.00 29 1014.0
20260904114305 92 80 0.0 0.0 0.00 0.00 0.00 28 1014.1
20260904113805 92 105 0.0 0.0 0.00 0.00 0.00 28 1014.2
20260904113305 92 143 0.0 0.0 0.00 0.00 0.00 28 1014.2
20260904112306 92 17 0.0 0.0 0.00 0.00 0.00 29 1014.1
20260904111305 92 146 0.0 0.0 0.00 0.00 0.00 29 1014.1
20260904110804 91 83 0.0 0.0 0.00 0.00 0.00 31 1014.1
20260904110305 91 90 0.0 0.0 0.00 0.00 0.00 31 1014.2
20260904105804 90 352 0.0 0.0 0.00 0.00 0.00 32 1014.2
20260904104805 90 9 0.0 0.0 0.00 0.00 0.00 33 1014.4
20260904104305 91 84 0.0 0.0 0.00 0.00 0.00 34 1014.3
20260904103805 90 64 0.0 0.0 0.00 0.00 0.00 34 1014.3
20260904103305 90 324 0.0 0.0 0.00 0.00 0.00 34 1014.3
20260904102805 89 72 0.0 0.0 0.00 0.00 0.00 33 1014.4
20260904102306 89 180 0.0 0.0 0.00 0.00 0.00 34 1014.5
20260904101805 89 23 0.0 0.0 0.00 0.00 0.00 34 1014.5
20260904100305 88 41 0.0 0.0 0.00 0.00 0.00 34 1014.5
20260904095804 88 26 0.0 0.0 0.00 0.00 0.00 35 1014.6
20260904095306 89 194 0.0 0.0 0.00 0.00 0.00 36 1014.7
20260904094804 89 103 0.0 0.0 0.00 0.00 0.00 36 1014.6
20260904094305 89 47 0.0 0.0 0.00 0.00 0.00 36 1014.7
20260904093804 88 46 0.0 0.0 0.00 0.00 0.00 37 1014.7
20260904093304 88 5 0.0 0.0 0.00 0.00 0.00 36 1014.8
20260904092805 88 18 0.0 0.0 0.00 0.00 0.00 37 1014.8
20260904092306 88 106 0.0 0.0 0.00 0.00 0.00 37 1014.8
20260904091805 88 157 0.0 0.0 0.00 0.00 0.00 37 1014.7
20260904091305 88 116 0.0 0.0 0.00 0.00 0.00 37 1014.6
20260904090805 88 19 0.0 0.0 0.00 0.00 0.00 38 1014.7
20260904090304 87 211 0.0 0.0 0.00 0.00 0.00 40 1014.7
20260904085805 87 206 0.0 0.0 0.00 0.00 0.00 40 1014.7
20260904085306 87 95 0.0 0.0 0.00 0.00 0.00 40 1014.7
20260904084804 86 217 0.0 0.0 0.00 0.00 0.00 42 1014.7
20260904083804 85 14 0.0 0.0 0.00 0.00 0.00 42 1014.6
20260904082306 84 228 0.0 0.0 0.00 0.00 0.00 44 1014.5
20260904081804 83 114 0.0 0.0 0.00 0.00 0.00 45 1014.5
20260904081305 83 305 0.0 0.0 0.00 0.00 0.00 46 1014.6
20260904075805 84 49 0.0 0.0 0.00 0.00 0.00 46 1014.5
20260904075306 84 105 0.0 0.0 0.00 0.00 0.00 46 1014.5
20260904074305 83 57 0.0 0.0 0.00 0.00 0.00 47 1014.4
20260904073804 83 82 0.0 0.0 0.00 0.00 0.00 46 1014.4
20260904072806 82 83 0.0 0.0 0.00 0.00 0.00 47 1014.3
20260904072306 82 27 0.0 0.0 0.00 0.00 0.00 48 1014.3
20260904070306 81 175 0.0 0.0 0.00 0.00 0.00 49 1014.2
20260904065306 80 76 0.0 0.0 0.00 0.00 0.00 49 1014.1
20260904064804 80 55 0.0 0.0 0.00 0.00 0.00 50 1014.1
20260904064304 79 43 0.0 0.0 0.00 0.00 0.00 51 1014.0
20260904063805 79 33 0.0 0.0 0.00 0.00 0.00 51 1014.0
20260904062805 79 133 0.0 0.0 0.00 0.00 0.00 53 1014.1
20260904061805 78 38 0.0 0.0 0.00 0.00 0.00 59 1013.9
20260904061304 77 248 0.0 0.0 0.00 0.00 0.00 62 1013.9
20260904060804 76 110 0.0 0.0 0.00 0.00 0.00 65 1013.9
20260904055804 75 17 0.0 0.0 0.00 0.00 0.00 66 1013.9
20260904055306 74 28 0.0 0.0 0.00 0.00 0.00 67 1013.8
20260904054804 73 163 0.0 0.0 0.00 0.00 0.00 69 1013.9
20260904054304 73 133 0.0 0.0 0.00 0.00 0.00 69 1013.9
20260904053804 72 137 0.0 0.0 0.00 0.00 0.00 68 1013.9
20260904052804 72 355 0.0 0.0 0.00 0.00 0.00 67 1013.7
20260904052307 72 28 0.0 0.0 0.00 0.00 0.00 66 1013.7
20260904051804 73 28 0.0 0.0 0.00 0.00 0.00 64 1013.7
20260904051304 73 49 0.0 0.0 0.00 0.00 0.00 63 1013.7
20260904050805 73 49 0.0 0.0 0.00 0.00 0.00 63 1013.6
20260904050305 73 51 0.0 0.0 0.00 0.00 0.00 63 1013.6
20260904045807 73 29 0.0 0.0 0.00 0.00 0.00 63 1013.4
20260904044805 73 54 0.0 0.0 0.00 0.00 0.00 62 1013.3
20260904044304 73 57 0.0 0.0 0.00 0.00 0.00 61 1013.3
20260904043804 73 11 0.0 0.0 0.00 0.00 0.00 61 1013.2
20260904043304 73 10 0.0 0.0 0.00 0.00 0.00 61 1013.1
20260904042804 73 111 0.0 0.0 0.00 0.00 0.00 60 1013.1
20260904041804 73 55 0.0 0.0 0.00 0.00 0.00 59 1013.1
20260904041304 73 181 0.0 0.0 0.00 0.00 0.00 59 1013.1
20260904040804 73 36 0.0 0.0 0.00 0.00 0.00 59 1013.0
20260904034804 73 0 0.0 0.0 0.00 0.00 0.00 61 1013.0
20260904034304 73 87 0.0 0.0 0.00 0.00 0.00 62 1013.0
20260904033804 73 168 0.0 0.0 0.00 0.00 0.00 63 1013.0
20260904033304 72 186 0.0 0.0 0.00 0.00 0.00 63 1012.9
20260904032805 72 112 0.0 0.0 0.00 0.00 0.00 63 1013.0
20260904032306 72 70 0.0 0.0 0.00 0.00 0.00 63 1013.0
20260904031804 72 101 0.0 0.0 0.00 0.00 0.00 63 1013.0
20260904031304 72 68 0.0 0.0 0.00 0.00 0.00 64 1013.0
20260904030804 72 132 0.0 0.0 0.00 0.00 0.00 63 1013.0
20260904030304 73 53 0.0 0.0 0.00 0.00 0.00 63 1013.0
20260904025804 73 53 0.0 0.0 0.00 0.00 0.00 62 1013.1
20260904024804 73 52 0.0 0.0 0.00 0.00 0.00 62 1013.2
20260904023804 73 41 0.0 0.0 0.00 0.00 0.00 62 1013.2
20260904022804 73 12 0.0 0.0 0.00 0.00 0.00 60 1013.1
20260904022306 73 176 0.0 0.0 0.00 0.00 0.00 61 1013.1
20260904021804 73 42 0.0 0.0 0.00 0.00 0.00 61 1013.1
20260904021304 73 98 0.0 0.0 0.00 0.00 0.00 62 1013.0
20260904020804 73 34 0.0 0.0 0.00 0.00 0.00 63 1013.0
20260904020304 73 36 0.0 0.0 0.00 0.00 0.00 63 1013.0
20260904015306 73 59 0.0 0.0 0.00 0.00 0.00 65 1012.9
20260904014804 73 109 0.0 0.0 0.00 0.00 0.00 66 1012.8
20260904014304 72 72 0.0 0.0 0.00 0.00 0.00 68 1012.8
20260904013804 72 47 0.0 0.0 0.00 0.00 0.00 71 1012.9
20260904012803 72 35 0.0 0.0 0.00 0.00 0.00 72 1013.0
20260904012306 72 14 0.0 0.0 0.00 0.00 0.00 72 1013.0
20260904011804 72 45 0.0 0.0 0.00 0.00 0.00 74 1013.1
20260904011304 72 74 0.0 0.0 0.00 0.00 0.00 74 1013.1
20260904010804 72 83 0.0 0.0 0.00 0.00 0.00 74 1013.1
20260904010303 72 41 0.0 0.0 0.00 0.00 0.00 74 1013.1
20260904005804 72 103 0.0 0.0 0.00 0.00 0.00 73 1013.1
20260904005306 72 42 0.0 0.0 0.00 0.00 0.00 73 1013.1
20260904004806 72 66 0.0 0.0 0.00 0.00 0.00 73 1013.0
20260904004306 73 65 0.0 0.0 0.00 0.00 0.00 73 1013.1
20260904003807 73 215 0.0 0.0 0.00 0.00 0.00 73 1013.1
20260904002306 73 78 0.0 0.0 0.00 0.00 0.00 72 1013.3
20260904001807 73 132 0.0 0.0 0.00 0.00 0.00 72 1013.3
20260904001306 73 38 0.0 0.0 0.00 0.00 0.00 73 1013.3
20260904000806 73 185 0.0 0.0 0.00 0.00 0.00 74 1013.3
20260903234807 73 93 0.0 0.0 0.00 0.00 0.00 76 1013.4
20260903234306 73 76 0.0 0.0 0.00 0.00 0.00 76 1013.5
20260903233806 73 59 0.0 0.0 0.00 0.00 0.00 76 1013.4
20260903233306 73 70 0.0 0.0 0.00 0.00 0.00 75 1013.5
20260903232806 73 25 0.0 0.0 0.00 0.00 0.00 74 1013.5
20260903232306 73 56 0.0 0.0 0.00 0.00 0.00 72 1013.5
20260903231806 73 38 0.0 0.0 0.00 0.00 0.00 71 1013.4
20260903231306 74 13 0.0 0.0 0.00 0.00 0.00 70 1013.4
20260903230806 74 47 0.0 0.0 0.00 0.00 0.00 69 1013.4
20260903230306 74 19 0.0 0.0 0.00 0.00 0.00 70 1013.4
20260903225806 74 34 0.0 0.0 0.00 0.00 0.00 71 1013.4
20260903225307 74 13 0.0 0.0 0.00 0.00 0.00 70 1013.4
20260903224306 74 8 0.0 0.0 0.00 0.00 0.00 69 1013.5
20260903223806 74 38 0.0 0.0 0.00 0.00 0.00 70 1013.4
20260903223307 74 10 0.0 0.0 0.00 0.00 0.00 70 1013.4
20260903222806 74 24 0.0 0.0 0.00 0.00 0.00 70 1013.4
20260903222306 74 45 0.0 0.0 0.00 0.00 0.00 69 1013.4
20260903221805 74 47 0.0 0.0 0.00 0.00 0.00 69 1013.5
20260903220826 74 347 0.0 0.0 0.00 0.00 0.00 70 1013.4
20260903220306 74 30 0.0 0.0 0.00 0.00 0.00 71 1013.4
20260903215806 75 46 0.0 0.0 0.00 0.00 0.00 71 1013.3
20260903215306 75 28 0.0 0.0 0.00 0.00 0.00 71 1013.3
20260903214806 75 180 0.0 0.0 0.00 0.00 0.00 71 1013.3
20260903214306 75 219 0.0 0.0 0.00 0.00 0.00 71 1013.3
20260903213806 75 114 0.0 0.0 0.00 0.00 0.00 71 1013.3
20260903213305 75 206 0.0 0.0 0.00 0.00 0.00 71 1013.4
20260903212806 75 187 0.0 0.0 0.00 0.00 0.00 70 1013.4
20260903212307 75 51 0.0 0.0 0.00 0.00 0.00 70 1013.4